Weather History for Amarillo, TX

Change the Weather History Date:

Tuesday, March 12, 2013

  Actual Average Record
Temperature  
Mean Temperature 47 °F 47 °F  
Max Temperature 56 °F 61 °F 86 °F (1916)
Min Temperature 37 °F 32 °F 9 °F (1956)
Degree Days  
Heating Degree Days 18 18  
Month to date heating degree days 197 236  
Since 1 July heating degree days 3062 3513  
Cooling Degree Days 0 0  
Month to date cooling degree days 0 0  
Year to date cooling degree days 0 0  
Moisture  
Dew Point 28 °F    
Average Humidity 54    
Maximum Humidity 76    
Minimum Humidity 32    
Precipitation  
Precipitation 0.00 in 0.05 in 1.00 in (1922)
Month to date precipitation 0.13 0.45  
Year to date precipitation 3.42 1.73  
Snow  
Snow 0.00 in 0.10 in 3.30 in (1958)
Month to date snowfall T 1.1  
Since 1 July snowfall 29.6 15.1  
Snow Depth 0.00 in    
Sea Level Pressure  
Sea Level Pressure 30.17 in    
Wind  
Wind Speed 12 mph (NE)    
Max Wind Speed 29 mph    
Max Gust Speed 35 mph    
Visibility 10 miles    
Events      
T = Trace of Precipitation, MM = Missing Value Source: NWS Daily Summary

Daily Weather History Graph

Daily Weather History Graph

Search for Another Location

Airport:

Trip Planner

Search our weather history database for the weather conditions in past years. The results will help you decide how hot, cold, wet, or windy it might be!

Date:

Astronomy

Mar. 12, 2013 Rise Set
Actual Time 8:01 AM CDT 7:52 PM CDT
Civil Twilight 7:36 AM CDT 8:17 PM CDT
Nautical Twilight 7:06 AM CDT 8:46 PM CDT
Astronomical Twilight 6:37 AM CDT 9:16 PM CDT
Moon 8:12 AM CDT (3/12) 9:04 PM CDT (3/12)
Length of Visible Light 12h 41m
Length of Day
11h 50m
New Moon, 1% of the Moon is Illuminated
Mar 12
New Moon
Mar 19
First Quarter
Mar 27
Full
Apr 2
Last Quarter
Apr 10
New

Hourly Weather History & Observations

Time (CDT) Temp. Windchill Dew Point Humidity Pressure Visibility Wind Dir Wind Speed Gust Speed Precip Events Conditions
12:53 AM 42.8 °F 37.0 °F 24.8 °F 49% 29.91 in 10.0 mi SE 10.4 mph - N/A   Clear
1:53 AM 41.0 °F 39.0 °F 24.1 °F 51% 29.85 in 10.0 mi NNE 3.5 mph - N/A   Clear
2:53 AM 41.0 °F 33.9 °F 24.1 °F 51% 29.89 in 10.0 mi North 12.7 mph - N/A   Clear
3:53 AM 39.0 °F 29.0 °F 27.0 °F 62% 29.94 in 10.0 mi North 20.7 mph - N/A   Clear
4:53 AM 37.9 °F 28.2 °F 28.0 °F 68% 29.96 in 10.0 mi North 18.4 mph - N/A   Clear
5:53 AM 39.0 °F 28.5 °F 28.0 °F 65% 30.01 in 10.0 mi North 23.0 mph 28.8 mph N/A   Clear
6:53 AM 37.9 °F 27.3 °F 28.9 °F 70% 30.07 in 10.0 mi North 21.9 mph - N/A   Clear
7:53 AM 37.9 °F 27.6 °F 30.0 °F 73% 30.13 in 10.0 mi NNE 20.7 mph 27.6 mph N/A   Clear
8:53 AM 37.9 °F 28.9 °F 30.0 °F 73% 30.20 in 10.0 mi North 16.1 mph 25.3 mph N/A   Clear
9:53 AM 39.0 °F 29.3 °F 30.0 °F 70% 30.24 in 10.0 mi North 19.6 mph - N/A   Clear
10:53 AM 42.1 °F 33.9 °F 30.9 °F 65% 30.25 in 10.0 mi NNE 17.3 mph 25.3 mph N/A   Clear
11:53 AM 44.1 °F 36.5 °F 30.9 °F 60% 30.29 in 10.0 mi North 17.3 mph - N/A   Clear
12:53 PM 46.0 °F 39.6 °F 30.9 °F 56% 30.30 in 10.0 mi North 15.0 mph - N/A   Clear
1:53 PM 48.9 °F - 30.9 °F 50% 30.30 in 10.0 mi NNE 12.7 mph 18.4 mph N/A   Clear
2:53 PM 51.1 °F - 30.0 °F 44% 30.27 in 10.0 mi NNE 9.2 mph 18.4 mph N/A   Clear
3:53 PM 54.0 °F - 30.0 °F 40% 30.26 in 10.0 mi NE 6.9 mph - N/A   Clear
4:53 PM 55.0 °F - 28.0 °F 35% 30.25 in 10.0 mi East 8.1 mph - N/A   Clear
5:53 PM 55.0 °F - 26.1 °F 33% 30.25 in 10.0 mi North 4.6 mph - N/A   Clear
6:53 PM 54.0 °F - 26.1 °F 34% 30.27 in 10.0 mi ENE 6.9 mph - N/A   Clear
7:53 PM 48.0 °F - 26.1 °F 42% 30.30 in 10.0 mi ENE 5.8 mph - N/A   Clear
8:53 PM 46.9 °F - 26.1 °F 44% 30.31 in 10.0 mi East 8.1 mph - N/A   Clear
9:53 PM 42.1 °F 36.6 °F 27.0 °F 55% 30.34 in 10.0 mi East 9.2 mph - N/A   Clear
10:53 PM 39.9 °F 34.5 °F 27.0 °F 60% 30.35 in 10.0 mi SE 8.1 mph - N/A   Clear
11:53 PM 39.0 °F 33.4 °F 27.0 °F 62% 30.35 in 10.0 mi South 8.1 mph - N/A   Clear